Weather History for Toluca Jose Maria, Mexico

Change the Weather History Date:

Monday, November 26, 2012

  Actual Average Record
Temperature  
Mean Temperature 50 °F -  
Max Temperature 68 °F 67 °F 71 °F (2004)
Min Temperature 33 °F 34 °F 26 °F (2002)
Degree Days  
Heating Degree Days 14    
Moisture  
Dew Point 37 °F    
Average Humidity 68    
Maximum Humidity 93    
Minimum Humidity 26    
Precipitation  
Precipitation 0.00 in - - ()
Sea Level Pressure  
Sea Level Pressure 30.25 in    
Wind  
Wind Speed 2 mph ()    
Max Wind Speed 7 mph    
Max Gust Speed -    
Visibility 4.5 miles    
Events Fog    
Averages and records for this station are not official NWS values.
T = Trace of Precipitation, MM = Missing Value Source: Averaged Metar Reports

Daily Weather History Graph

Daily Weather History Graph

Search for Another Location

Airport:

Trip Planner

Search our weather history database for the weather conditions in past years. The results will help you decide how hot, cold, wet, or windy it might be!

Date:

Astronomy

Nov. 26, 2012 Rise Set
Actual Time 6:52 AM CST 5:58 PM CST
Civil Twilight 6:29 AM CST 6:21 PM CST
Nautical Twilight 6:02 AM CST 6:48 PM CST
Astronomical Twilight 5:35 AM CST 7:15 PM CST
Moon 4:45 PM CST (11/26) 5:13 AM CST (11/26)
Length of Visible Light 11h 52m
Length of Day
11h 05m
Waxing Gibbous, 97% of the Moon is Illuminated
Nov 26
Waxing Gibbous
Nov 28
Full
Dec 6
Last Quarter
Dec 13
New
Dec 19
First Quarter

Hourly Weather History & Observations

Time (CST) Temp. Windchill Dew Point Humidity Pressure Visibility Wind Dir Wind Speed Gust Speed Precip Events Conditions
12:45 AM 37.4 °F 33.8 °F 33.8 °F 87% 30.38 in 7.0 mi ESE 4.6 mph - N/A   Partly Cloudy
1:45 AM 39.2 °F 35.9 °F 35.6 °F 87% 30.36 in 5.0 mi SE 4.6 mph - N/A   Partly Cloudy
2:45 AM 39.2 °F 35.9 °F 35.6 °F 87% 29.90 in 5.0 mi SE 4.6 mph - N/A   Partly Cloudy
3:45 AM 37.4 °F - 35.6 °F 93% 30.33 in 5.0 mi Calm Calm - N/A   Partly Cloudy
4:45 AM 35.6 °F - 32.0 °F 87% 30.33 in 5.0 mi Calm Calm - N/A   Partly Cloudy
5:45 AM 35.6 °F - 33.8 °F 93% 29.96 in 5.0 mi Calm Calm - N/A   Partly Cloudy
6:45 AM 33.8 °F - 32.0 °F 93% 30.34 in 1.0 mi Calm Calm - N/A Fog Fog
7:45 AM 35.6 °F - 33.8 °F 93% 30.37 in 1.0 mi Calm Calm - N/A   Scattered Clouds
8:45 AM 41.0 °F 37.1 °F 37.4 °F 87% 30.03 in 2.0 mi NW 5.8 mph - N/A   Overcast
9:45 AM 50.0 °F - 39.2 °F 66% 30.42 in 3.0 mi Calm Calm - N/A   Mostly Cloudy
10:45 AM 59.0 °F - 39.2 °F 48% 30.41 in 4.0 mi SSW 3.5 mph - N/A   Mostly Cloudy
11:45 AM 62.6 °F - 37.4 °F 39% 29.92 in 5.0 mi Calm Calm - N/A   Mostly Cloudy
12:45 PM 64.4 °F - 35.6 °F 34% 30.37 in 5.0 mi WNW 6.9 mph - N/A   Mostly Cloudy
1:45 PM 66.2 °F - 33.8 °F 30% 30.34 in 5.0 mi WNW 3.5 mph - N/A   Overcast
3:45 PM 68.0 °F - 32.0 °F 26% 30.32 in 5.0 mi SSW 3.5 mph - N/A   Overcast
4:45 PM 66.2 °F - 32.0 °F 28% 30.33 in 5.0 mi SSW 5.8 mph - N/A   Overcast
5:45 PM 60.8 °F - 41.0 °F 48% 29.88 in 5.0 mi WSW 4.6 mph - N/A   Overcast
6:45 PM 57.2 °F - 46.4 °F 67% 30.39 in 5.0 mi SW 3.5 mph - N/A   Overcast
7:45 PM 55.4 °F - 42.8 °F 63% 30.41 in 5.0 mi East 4.6 mph - N/A   Overcast
8:45 PM 51.8 °F - 41.0 °F 67% 30.06 in 5.0 mi Calm Calm - N/A   Overcast
9:45 PM 46.4 °F - 41.0 °F 81% 30.44 in 5.0 mi Calm Calm - N/A   Mostly Cloudy
10:45 PM 44.6 °F - 37.4 °F 76% 30.45 in 5.0 mi Calm Calm - N/A   Scattered Clouds
11:45 PM 42.8 °F 41.1 °F 37.4 °F 81% 30.00 in 5.0 mi NNW 3.5 mph - N/A   Partly Cloudy